JR5YHL-13 Weather Reports


time (UTC)temp
F
wind
direction
speed
knots
gust
knots
rain 1hr
in
rain 24hr
in
rain mn
in
humidity
%
barometer
mb
20260508095614 72 270 2.6 7.8 0.00 0.02 0.00 28 1008.7
20260508094616 73 270 3.5 7.0 0.00 0.02 0.00 27 1008.5
20260508093619 73 270 4.3 7.0 0.00 0.02 0.00 25 1008.3
20260508092621 74 270 2.6 8.7 0.00 0.02 0.00 23 1008.1
20260508091623 75 270 2.6 7.0 0.00 0.02 0.00 21 1007.7
20260508090626 75 225 3.5 9.6 0.00 0.02 0.00 19 1007.7
20260508085628 76 225 1.7 10.4 0.00 0.02 0.00 19 1007.4
20260508084630 76 225 4.3 9.6 0.00 0.02 0.00 19 1007.4
20260508083632 75 270 7.0 13.9 0.00 0.02 0.00 18 1007.3
20260508082634 75 270 5.2 11.3 0.00 0.02 0.00 19 1007.3
20260508081637 75 180 3.5 12.2 0.00 0.02 0.00 19 1007.1
20260508080639 76 270 2.6 10.4 0.00 0.02 0.00 19 1007.0
20260508075641 77 270 3.5 9.6 0.00 0.02 0.00 20 1007.0
20260508074643 77 270 2.6 5.2 0.00 0.02 0.00 22 1006.9
20260508073645 77 293 4.3 8.7 0.00 0.02 0.00 21 1006.8
20260508072647 77 225 2.6 9.6 0.00 0.02 0.00 23 1006.9
20260508071650 78 248 2.6 11.3 0.00 0.02 0.00 23 1006.8
20260508070652 79 270 6.1 14.8 0.00 0.02 0.00 22 1006.8
20260508065654 80 270 8.7 15.6 0.00 0.02 0.00 25 1006.7
20260508064656 80 270 6.1 19.1 0.00 0.02 0.00 25 1006.5
20260508063658 82 293 5.2 16.5 0.00 0.02 0.00 28 1006.6
20260508062700 83 270 7.0 13.0 0.00 0.02 0.00 29 1006.4
20260508061702 83 270 7.0 14.8 0.00 0.02 0.00 31 1006.3
20260508060704 82 225 6.1 13.9 0.00 0.02 0.00 35 1006.6
20260508055706 80 225 3.5 11.3 0.00 0.02 0.00 35 1006.8
20260508054708 79 270 7.0 14.8 0.00 0.02 0.00 36 1007.0
20260508053710 78 315 7.0 13.0 0.00 0.02 0.00 37 1007.1
20260508052713 79 270 3.5 12.2 0.00 0.02 0.00 37 1007.1
20260508051715 80 225 5.2 16.5 0.00 0.02 0.00 38 1007.2
20260508050717 82 270 5.2 12.2 0.00 0.02 0.00 36 1007.1
20260508045719 82 270 3.5 11.3 0.00 0.02 0.00 38 1007.2
20260508044721 80 270 3.5 8.7 0.00 0.02 0.00 40 1007.4
20260508043723 80 270 1.7 6.1 0.00 0.02 0.00 39 1007.4
20260508042725 81 270 3.5 9.6 0.00 0.02 0.00 37 1007.3
20260508041728 82 270 2.6 9.6 0.00 0.02 0.00 39 1007.4
20260508040730 81 315 3.5 13.0 0.00 0.02 0.00 39 1007.5
20260508035732 81 225 3.5 10.4 0.00 0.02 0.00 42 1007.5
20260508034734 81 270 3.5 8.7 0.00 0.02 0.00 42 1007.4
20260508033736 80 270 3.5 9.6 0.00 0.02 0.00 44 1007.6
20260508032739 80 270 4.3 8.7 0.00 0.02 0.00 45 1007.7
20260508031740 79 270 3.5 7.0 0.00 0.02 0.00 46 1007.6
20260508030742 78 0 0.9 6.1 0.00 0.02 0.00 48 1007.7
20260508025744 78 293 1.7 7.0 0.00 0.02 0.00 49 1007.7
20260508024747 78 270 4.3 10.4 0.00 0.02 0.00 54 1007.8
20260508023749 78 135 0.9 4.3 0.00 0.02 0.00 71 1007.8
20260508022751 80 225 0.9 2.6 0.00 0.02 0.00 69 1007.8
20260508021753 80 270 1.7 3.5 0.00 0.02 0.00 70 1007.8
20260508020756 78 90 0.9 4.3 0.00 0.02 0.00 74 1007.9
20260508015758 78 90 1.7 4.3 0.00 0.02 0.00 74 1008.2
20260508014800 79 225 0.9 2.6 0.00 0.02 0.00 76 1008.2
20260508013802 79 0 1.7 3.5 0.00 0.02 0.00 75 1008.3
20260508012805 78 248 0.0 1.7 0.00 0.02 0.00 83 1008.4
20260508011807 77 45 1.7 4.3 0.00 0.02 0.00 88 1008.2
20260508010809 76 90 0.9 1.7 0.00 0.02 0.00 91 1008.3
20260508005811 75 225 0.9 2.6 0.00 0.02 0.00 91 1008.6
20260508004814 74 270 0.0 3.5 0.00 0.02 0.00 94 1008.5
20260508003816 74 180 0.0 2.6 0.00 0.02 0.00 98 1008.6
20260508002818 74 315 0.0 1.7 0.00 0.02 0.00 99 1008.7
20260508001820 73 315 0.0 0.9 0.00 0.02 0.00 99 1008.7
20260508000823 72 180 0.0 1.7 0.00 0.02 0.00 99 1008.9
20260507235825 72 293 0.9 3.5 0.00 0.02 0.00 99 1008.9
20260507234827 71 225 0.0 1.7 0.00 0.02 0.00 99 1009.0
20260507233829 71 225 0.0 1.7 0.00 0.02 0.00 99 1009.0
20260507232831 71 248 0.9 2.6 0.00 0.02 0.00 99 1008.9
20260507231834 70 270 0.9 2.6 0.00 0.02 0.00 99 1009.1
20260507230836 69 225 0.9 1.7 0.00 0.02 0.00 99 1009.2
20260507225838 69 270 0.0 1.7 0.00 0.02 0.00 99 1008.9
20260507224840 69 225 0.0 1.7 0.00 0.02 0.00 99 1009.2
20260507223843 68 225 0.0 1.7 0.00 0.02 0.00 99 1009.0
20260507222845 68 248 0.9 2.6 0.00 0.02 0.00 99 1009.3
20260507221847 68 225 0.0 1.7 0.00 0.02 0.00 99 1009.0
20260507220849 68 270 0.0 1.7 0.00 0.02 0.00 99 1009.2
20260507215851 67 135 1.7 1.7 0.00 0.02 0.00 99 1009.2
20260507214853 67 45 0.0 2.6 0.00 0.02 0.00 99 1009.2
20260507213855 66 90 0.9 3.5 0.00 0.02 0.00 99 1009.1
20260507212857 67 180 0.0 3.5 0.00 0.02 0.00 99 1009.6
20260507211859 67 225 0.0 4.3 0.00 0.02 0.00 99 1009.8
20260507210901 67 180 1.7 4.3 0.00 0.02 0.00 99 1009.9
20260507205903 66 315 0.0 2.6 0.00 0.02 0.00 99 1009.8
20260507204905 66 225 1.7 4.3 0.00 0.02 0.00 99 1009.6
20260507203907 66 225 1.7 4.3 0.00 0.02 0.00 99 1009.3
20260507202909 67 270 0.9 3.5 0.00 0.02 0.00 99 1009.2
20260507201912 67 225 1.7 5.2 0.00 0.02 0.00 99 1009.2
20260507200914 67 315 1.7 4.3 0.00 0.02 0.00 99 1009.4
20260507195916 67 225 0.0 1.7 0.00 0.02 0.00 99 1009.2
20260507194918 67 270 0.0 1.7 0.00 0.02 0.00 99 1009.2
20260507193920 67 270 0.0 0.9 0.00 0.02 0.00 99 1009.3
20260507192922 68 225 0.0 0.9 0.00 0.02 0.00 99 1009.4
20260507191924 67 45 0.0 0.9 0.00 0.02 0.00 99 1009.5
20260507190927 67 225 0.0 1.7 0.00 0.02 0.00 99 1009.8
20260507185929 68 225 0.0 1.7 0.00 0.02 0.00 99 1009.8
20260507184931 68 270 0.0 1.7 0.00 0.02 0.00 99 1009.9
20260507183933 67 225 0.0 0.0 0.00 0.02 0.00 99 1009.8
20260507182935 68 225 0.0 0.0 0.00 0.02 0.00 99 1009.7
20260507181938 68 225 0.0 0.0 0.00 0.02 0.00 99 1009.7
20260507180940 68 225 0.0 0.9 0.00 0.02 0.00 99 1009.9
20260507175942 68 225 0.0 1.7 0.00 0.02 0.00 99 1009.9
20260507174944 68 270 0.9 1.7 0.00 0.02 0.00 99 1010.2
20260507173946 68 225 0.0 1.7 0.00 0.02 0.00 99 1010.2
20260507172949 68 225 0.0 0.0 0.00 0.02 0.00 99 1010.1
20260507171951 68 270 0.0 0.9 0.00 0.02 0.00 99 1010.1
20260507170953 68 135 0.0 1.7 0.00 0.02 0.00 99 1009.9
20260507165955 68 225 0.0 0.0 0.00 0.02 0.00 99 1010.1
20260507164958 68 225 0.0 0.0 0.00 0.02 0.00 99 1010.4
20260507164000 68 180 0.0 0.9 0.00 0.02 0.00 99 1010.4
20260507163002 69 0 0.0 0.9 0.00 0.02 0.00 99 1010.4
20260507162004 69 225 0.0 0.0 0.00 0.02 0.00 99 1010.7
20260507161006 69 225 0.0 0.0 0.00 0.02 0.00 99 1010.8
20260507160008 68 225 0.0 0.0 0.00 0.02 0.00 99 1011.0
20260507155010 69 225 0.0 0.0 0.00 0.02 0.00 99 1011.1
20260507154012 69 225 0.0 0.9 0.00 0.02 0.00 99 1011.1
20260507153014 69 225 0.0 0.0 0.00 0.02 0.00 99 1011.2
20260507152016 69 225 0.0 0.9 0.00 0.02 0.00 99 1011.2
20260507151019 69 90 0.0 0.9 0.00 0.02 0.00 99 1011.2
20260507150021 69 0 0.0 1.7 0.00 0.02 0.00 99 1011.3
20260507145023 70 90 0.0 0.0 0.00 0.02 0.00 99 1011.5
20260507144025 70 225 0.0 0.0 0.00 0.02 0.00 99 1011.6
20260507143027 70 225 0.0 0.0 0.01 0.02 0.00 99 1011.7
20260507142030 70 90 0.0 0.9 0.02 0.02 0.00 99 1011.7
20260507141032 70 0 0.0 0.9 0.02 0.02 0.00 99 1011.6
20260507140034 70 225 0.0 0.0 0.02 0.02 0.00 99 1011.6
20260507135036 71 225 0.0 0.9 0.02 0.02 0.00 99 1011.5
20260507134039 71 225 0.0 0.0 0.02 0.02 0.00 99 1011.5
20260507133041 71 270 0.0 0.0 0.01 0.01 0.00 99 1011.6
20260507132043 71 225 0.0 0.0 0.00 0.00 0.00 99 1011.7
20260507131045 71 225 0.0 0.9 0.00 0.00 0.00 99 1011.8
20260507130047 71 45 0.0 1.7 0.00 0.00 0.00 99 1011.9
20260507125049 71 315 0.0 0.0 0.00 0.00 0.00 99 1011.7
20260507124051 71 180 0.0 0.9 0.00 0.00 0.00 99 1011.8
20260507123054 71 0 0.0 0.0 0.00 0.00 0.00 99 1011.8
20260507122056 71 45 0.0 0.9 0.00 0.00 0.00 99 1011.8
20260507121058 71 90 0.0 0.9 0.00 0.00 0.00 99 1011.7
20260507120100 71 135 0.0 1.7 0.00 0.00 0.00 99 1011.9
20260507115102 72 225 0.0 0.9 0.00 0.00 0.00 99 1011.8
20260507114104 72 225 0.0 0.0 0.00 0.00 0.00 99 1011.7
20260507113107 72 0 0.0 0.9 0.00 0.00 0.00 99 1011.6
20260507112109 72 225 0.0 0.9 0.00 0.00 0.00 99 1011.6
20260507111111 72 0 0.0 1.7 0.00 0.00 0.00 99 1011.5
20260507110113 72 225 0.0 1.7 0.00 0.00 0.00 99 1011.5
20260507105115 72 90 0.0 1.7 0.00 0.00 0.00 99 1011.3
20260507104118 72 180 0.0 1.7 0.00 0.00 0.00 99 1011.3
20260507103120 72 225 0.0 0.9 0.00 0.00 0.00 99 1011.3
20260507102122 72 135 0.0 1.7 0.00 0.00 0.00 99 1011.3
20260507101124 72 180 0.0 0.9 0.00 0.00 0.00 99 1011.2